Weather History for EGDY - November, 2012

Change the Weather History Date:

Friday, November 9, 2012

  Actual Average Record
Temperature  
Mean Temperature 46 °F -  
Max Temperature 51 °F 48 °F 59 °F (1998)
Min Temperature 42 °F 37 °F 28 °F (2001)
Degree Days  
Heating Degree Days 18    
Moisture  
Dew Point 43 °F    
Average Humidity 83    
Maximum Humidity 97    
Minimum Humidity 66    
Precipitation  
Precipitation 0.04 in - - ()
Sea Level Pressure  
Sea Level Pressure 29.77 in    
Wind  
Wind Speed 6 mph ()    
Max Wind Speed 13 mph    
Max Gust Speed -    
Visibility 7.1 miles    
Events Rain    
Averages and records for this station are not official NWS values.
T = Trace of Precipitation, MM = Missing Value Source: Averaged Metar Reports

Daily Weather History Graph

Daily Weather History Graph

Search for Another Location

Airport or City:

Trip Planner

Search our weather history database for the weather conditions in past years. The results will help you decide how hot, cold, wet, or windy it might be!

Date:

Astronomy

Nov. 09, 2012 Rise Set
Actual Time 7:17 AM GMT 4:31 PM GMT
Civil Twilight 6:41 AM GMT 5:06 PM GMT
Nautical Twilight 6:01 AM GMT 5:46 PM GMT
Astronomical Twilight 5:22 AM GMT 6:25 PM GMT
Moon 1:28 AM GMT (11/9) 2:04 PM GMT (11/9)
Length of Visible Light 10h 25m
Length of Day
9h 13m
Waning Crescent, 25% of the Moon is Illuminated
Nov 9
Waning Crescent
Nov 13
New
Nov 20
First Quarter
Nov 28
Full
Dec 6
Last Quarter

Hourly Weather History & Observations

Time (GMT) Temp. Windchill Dew Point Humidity Pressure Visibility Wind Dir Wind Speed Gust Speed Precip Events Conditions
12:50 AM 42.8 °F 41.1 °F 41.0 °F 93% 30.01 in 6.2 mi WSW 3.5 mph - N/A   Mostly Cloudy
1:50 AM 44.6 °F 41.4 °F 41.0 °F 87% 30.01 in 6.2 mi SSW 5.8 mph - N/A   Overcast
2:50 AM 45 °F - 42 °F 84% 30.00 in 28 mi South 4.6 mph - -   Overcast
2:50 AM 44.6 °F 42.2 °F 41.0 °F 87% 29.98 in 6.2 mi South 4.6 mph - N/A   Overcast
3:50 AM 44.6 °F 43.1 °F 42.8 °F 93% 29.98 in 6.2 mi South 3.5 mph - N/A   Mostly Cloudy
4:50 AM 46.4 °F 45.2 °F 41.0 °F 81% 29.95 in 6.2 mi SSW 3.5 mph - N/A   Mostly Cloudy
5:50 AM 45 °F - 42 °F 86% 29.94 in 16 mi South 3.5 mph - -   Mostly Cloudy
5:50 AM 44.6 °F 43.1 °F 42.8 °F 93% 29.92 in 6.2 mi South 3.5 mph - N/A   Mostly Cloudy
6:50 AM 46.4 °F 43.5 °F 41.0 °F 81% 29.89 in 6.2 mi South 5.8 mph - N/A   Mostly Cloudy
7:50 AM 46.4 °F 43.5 °F 41.0 °F 81% 29.89 in 6.2 mi SSW 5.8 mph - N/A   Mostly Cloudy
8:50 AM 48 °F - 42 °F 73% 29.89 in 16 mi SSW 3.5 mph - -   Mostly Cloudy
8:50 AM 48.2 °F - 42.8 °F 82% 29.89 in 6.2 mi SSW 3.5 mph - N/A   Scattered Clouds
9:50 AM 50.0 °F - 42.8 °F 76% 29.86 in 6.2 mi South 4.6 mph - N/A   Mostly Cloudy
10:50 AM 50.0 °F - 44.6 °F 82% 29.83 in 6.2 mi South 6.9 mph - N/A Rain Light Rain
11:50 AM 51 °F - 45 °F 74% 29.81 in 12 mi SSW 9.2 mph - - Rain Light Rain
11:50 AM 51.8 °F - 44.6 °F 76% 29.80 in 6.2 mi SSW 9.2 mph - N/A   Mostly Cloudy
12:50 PM 51.8 °F - 42.8 °F 71% 29.77 in 6.2 mi South 12.7 mph - N/A   Mostly Cloudy
1:50 PM 51.8 °F - 42.8 °F 71% 29.74 in 6.2 mi South 11.5 mph - N/A   Mostly Cloudy
2:50 PM 51 °F - 43 °F 66% 29.72 in 9 mi South 11.5 mph - -   Partly Cloudy
2:50 PM 50.0 °F - 42.8 °F 76% 29.71 in 6.2 mi South 11.5 mph - N/A   Mostly Cloudy
3:50 PM 50.0 °F - 42.8 °F 76% 29.68 in 6.2 mi South 11.5 mph - N/A   Overcast
4:50 PM 50.0 °F - 44.6 °F 82% 29.65 in 6.2 mi South 12.7 mph - N/A   Overcast
5:50 PM 50 °F - 45 °F 75% 29.64 in 31 mi South 10.4 mph - - Rain Rain
5:50 PM 50.0 °F - 44.6 °F 82% 29.62 in 6.2 mi South 10.4 mph - N/A   Mostly Cloudy
6:50 PM 50.0 °F - 42.8 °F 76% 29.59 in 6.2 mi South 8.1 mph - N/A   Mostly Cloudy
7:50 PM 50.0 °F - 44.6 °F 82% 29.59 in 6.2 mi South 11.5 mph - N/A Rain Light Rain Showers
8:50 PM 49 °F - 47 °F 91% 29.60 in 9 mi SSW 9.2 mph - - Rain Rain
8:50 PM 48.2 °F - 46.4 °F 93% 29.59 in 6.2 mi SSW 9.2 mph - N/A   Mostly Cloudy
9:50 PM 48.2 °F - 46.4 °F 93% 29.56 in 6.2 mi South 9.2 mph - N/A Rain Light Rain
10:50 PM 48.2 °F - 46.4 °F 93% 29.53 in 6.2 mi South 6.9 mph - N/A Rain Light Rain
11:50 PM 47 °F - 46 °F 97% 29.53 in 4 mi SE 3.5 mph - - Rain Light Rain
11:50 PM 48.2 °F - 46.4 °F 93% 29.50 in 4.3 mi SE 3.5 mph - N/A Rain Light Rain